Simultaneous Nadir Overpasses (SNOs) Predictions

Prediction of SNOs between GOES-14 and AQUA Satellite Orbit:

Table of predicted SNOs for the next 14.0 days since TLE Epoch: 11/21/2020
Index Date Time (GOES-14) GOES-14 Lat,Lon AQUA Lat,Lon Distance(km) Time Diff (sec)
1 11/21/2020 20:32:38 -0.01,-104.16 0.05,-103.98 21.43 80
2 11/23/2020 20:20:27 -0.01,-104.16 0.66,-101.02 357.30 80
3 11/24/2020 08:41:44 -0.01,-104.39 0.37,-106.19 205.45 80
4 11/26/2020 08:26:53 -0.00,-104.39 -0.24,-103.24 130.46 80
5 11/26/2020 20:48:17 0.03,-104.15 -0.87,-108.43 486.18 80
6 11/28/2020 08:14:42 0.00,-104.38 -0.86,-100.28 466.46 80
7 11/28/2020 20:36:06 0.02,-104.15 -0.25,-105.47 149.77 80
8 11/30/2020 20:26:35 0.01,-104.15 0.37,-102.52 186.29 80
9 12/01/2020 08:47:52 -0.03,-104.40 0.65,-107.69 373.44 80
10 12/03/2020 08:35:41 -0.03,-104.39 0.02,-104.73 38.07 80
